Weather History for Altus, OK

Change the Weather History Date:

Friday, December 14, 2012

  Actual Average (KLTS) Record (KLTS)
Temperature  
Mean Temperature 52 °F -  
Max Temperature 60 °F 51 °F 77 °F (2008)
Min Temperature 44 °F 27 °F 17 °F (2000)
Degree Days  
Heating Degree Days 13    
Growing Degree Days 2 (Base 50)    
Moisture  
Dew Point 42 °F    
Average Humidity 69    
Maximum Humidity 94    
Minimum Humidity 47    
Precipitation  
Precipitation 0.20 in - - ()
Sea Level Pressure  
Sea Level Pressure 29.89 in    
Wind  
Wind Speed 13 mph (SSE)    
Max Wind Speed 24 mph    
Max Gust Speed 39 mph    
Visibility 9 miles    
Events Rain , Thunderstorm    
Averages and records for this station are not official NWS values.
T = Trace of Precipitation, MM = Missing Value Source: NWS Daily Summary

Daily Weather History Graph

Daily Weather History Graph

Search for Another Location

Airport:

Trip Planner

Search our weather history database for the weather conditions in past years. The results will help you decide how hot, cold, wet, or windy it might be!

Date:

Astronomy

Dec. 14, 2012 Rise Set
Actual Time 7:36 AM CST 5:27 PM CST
Civil Twilight 7:08 AM CST 5:55 PM CST
Nautical Twilight 6:37 AM CST 6:27 PM CST
Astronomical Twilight 6:06 AM CST 6:58 PM CST
Moon 8:45 AM CST (12/14) 7:19 PM CST (12/14)
Length of Visible Light 10h 46m
Length of Day
9h 50m
Waxing Crescent, 3% of the Moon is Illuminated
Dec 14
Waxing Crescent
Dec 19
First Quarter
Dec 28
Full
Jan 4
Last Quarter
Jan 11
New

Hourly Weather History & Observations

Time (CST) Temp. Windchill Dew Point Humidity Pressure Visibility Wind Dir Wind Speed Gust Speed Precip Events Conditions
12:15 AM 44.6 °F 40.2 °F 33.8 °F 66% 30.10 in 10.0 mi ESE 8.1 mph - N/A   Scattered Clouds
12:35 AM 46.4 °F 41.5 °F 33.8 °F 62% 30.09 in 10.0 mi ESE 10.4 mph - N/A   Overcast
12:55 AM 46.4 °F 41.9 °F 33.8 °F 62% 30.09 in 10.0 mi ESE 9.2 mph - N/A   Overcast
1:15 AM 46.4 °F 41.9 °F 35.6 °F 66% 30.08 in 10.0 mi ESE 9.2 mph - N/A   Overcast
1:35 AM 46.4 °F 42.4 °F 35.6 °F 66% 30.08 in 10.0 mi ESE 8.1 mph - N/A   Overcast
1:55 AM 48.2 °F - 35.6 °F 62% 30.08 in 10.0 mi SE 8.1 mph - N/A   Overcast
2:15 AM 50.0 °F - 35.6 °F 58% 30.07 in 10.0 mi SE 10.4 mph - N/A   Overcast
2:55 AM 50.0 °F - 37.4 °F 62% 30.07 in 10.0 mi SE 6.9 mph - N/A   Overcast
3:15 AM 50.0 °F - 37.4 °F 62% 30.07 in 10.0 mi SE 6.9 mph - N/A   Overcast
3:55 AM 50.0 °F - 37.4 °F 62% 30.05 in 10.0 mi SE 10.4 mph - N/A   Overcast
4:15 AM 51.8 °F - 37.4 °F 58% 30.05 in 10.0 mi SE 9.2 mph - N/A   Overcast
4:35 AM 51.8 °F - 39.2 °F 62% 30.05 in 10.0 mi SE 11.5 mph - N/A   Overcast
4:55 AM 51.8 °F - 39.2 °F 62% 30.04 in 10.0 mi SE 10.4 mph - N/A   Overcast
5:15 AM 51.8 °F - 41.0 °F 67% 30.03 in 10.0 mi SE 12.7 mph - N/A   Overcast
5:35 AM 53.6 °F - 41.0 °F 62% 30.03 in 10.0 mi SE 12.7 mph - N/A   Overcast
5:55 AM 53.6 °F - 41.0 °F 62% 30.03 in 10.0 mi SE 13.8 mph - N/A   Overcast
6:15 AM 53.6 °F - 39.2 °F 58% 30.02 in 10.0 mi SE 12.7 mph - N/A   Overcast
6:35 AM 53.6 °F - 39.2 °F 58% 30.02 in 10.0 mi SE 13.8 mph - N/A   Overcast
6:55 AM 53.6 °F - 39.2 °F 58% 30.02 in 10.0 mi SE 16.1 mph - N/A   Overcast
7:15 AM 53.6 °F - 37.4 °F 54% 30.02 in 10.0 mi SSE 15.0 mph - N/A   Overcast
7:35 AM 53.6 °F - 35.6 °F 51% 30.02 in 10.0 mi SSE 17.3 mph - N/A   Overcast
7:55 AM 53.6 °F - 35.6 °F 51% 30.02 in 10.0 mi SE 18.4 mph - N/A   Overcast
8:15 AM 53.6 °F - 35.6 °F 51% 30.01 in 10.0 mi SE 15.0 mph - N/A   Overcast
8:55 AM 53.6 °F - 33.8 °F 47% 30.00 in 10.0 mi SE 15.0 mph - N/A   Overcast
9:15 AM 53.6 °F - 35.6 °F 51% 29.99 in 10.0 mi SE 16.1 mph 21.9 mph N/A   Mostly Cloudy
9:35 AM 53.6 °F - 33.8 °F 47% 29.99 in 10.0 mi SE 21.9 mph - N/A   Overcast
9:55 AM 53.6 °F - 33.8 °F 47% 29.99 in 10.0 mi SSE 17.3 mph - N/A   Overcast
10:15 AM 53.6 °F - 35.6 °F 51% 29.98 in 10.0 mi SE 17.3 mph 24.2 mph N/A   Overcast
10:55 AM 53.6 °F - 35.6 °F 51% 29.96 in 10.0 mi SE 18.4 mph 25.3 mph N/A   Overcast
11:15 AM 53.6 °F - 37.4 °F 54% 29.94 in 10.0 mi SE 19.6 mph 25.3 mph N/A   Overcast
11:35 AM 55.4 °F - 39.2 °F 54% 29.94 in 10.0 mi SE 17.3 mph - N/A   Overcast
11:55 AM 55.4 °F - 39.2 °F 54% 29.93 in 10.0 mi SSE 20.7 mph 24.2 mph N/A   Overcast
12:15 PM 55.4 °F - 41.0 °F 58% 29.92 in 10.0 mi SSE 19.6 mph 26.5 mph N/A   Mostly Cloudy
12:35 PM 55.4 °F - 42.8 °F 63% 29.90 in 10.0 mi SSE 19.6 mph 26.5 mph N/A   Mostly Cloudy
12:55 PM 57.2 °F - 42.8 °F 59% 29.88 in 10.0 mi SSE 18.4 mph - N/A   Overcast
1:15 PM 57.2 °F - 44.6 °F 63% 29.87 in 10.0 mi SSE 19.6 mph - N/A   Overcast
1:35 PM 57.2 °F - 44.6 °F 63% 29.85 in 10.0 mi SSE 20.7 mph 24.2 mph N/A   Overcast
1:55 PM 59.0 °F - 46.4 °F 63% 29.82 in 10.0 mi SSE 20.7 mph - N/A   Overcast
2:15 PM 59.0 °F - 46.4 °F 63% 29.79 in 10.0 mi SSE 19.6 mph 26.5 mph N/A   Overcast
2:35 PM 59.0 °F - 48.2 °F 67% 29.78 in 10.0 mi SSE 19.6 mph 25.3 mph N/A   Overcast
2:55 PM 59.0 °F - 50.0 °F 72% 29.77 in 10.0 mi SSE 15.0 mph 24.2 mph N/A   Overcast
3:15 PM 60.8 °F - 51.8 °F 72% 29.75 in 10.0 mi SSE 20.7 mph 24.2 mph N/A   Overcast
3:35 PM 59.0 °F - 51.8 °F 77% 29.75 in 10.0 mi SSE 17.3 mph 24.2 mph N/A   Overcast
3:55 PM 59.0 °F - 51.8 °F 77% 29.75 in 10.0 mi SSE 20.7 mph - N/A   Overcast
4:15 PM 59.0 °F - 53.6 °F 82% 29.74 in 3.0 mi SSE 17.3 mph 26.5 mph N/A   Haze
4:35 PM 57.2 °F - 53.6 °F 88% 29.73 in 2.0 mi SSE 18.4 mph - N/A Rain Light Rain
4:55 PM 55.4 °F - 53.6 °F 94% 29.72 in 2.0 mi SSE 17.3 mph 23.0 mph N/A   Drizzle
5:15 PM 55.4 °F - 53.6 °F 94% 29.71 in 2.5 mi SSE 18.4 mph - N/A   Light Drizzle
5:35 PM 55.4 °F - 53.6 °F 94% 29.70 in 10.0 mi SE 21.9 mph 25.3 mph N/A   Overcast
5:55 PM 57.2 °F - 53.6 °F 88% 29.68 in 10.0 mi SSE 23.0 mph 29.9 mph N/A   Overcast
6:35 PM 57.2 °F - 53.6 °F 88% 29.80 in 10.0 mi WSW 24.2 mph 39.1 mph N/A Rain Light Rain
6:55 PM 48.2 °F - 44.6 °F 87% 29.79 in 3.0 mi West 11.5 mph - 0.18 in Rain , Thunderstorm Rain
7:15 PM 50.0 °F - 46.4 °F 87% 29.76 in 7.0 mi Calm Calm - 0.02 in Rain Light Rain
7:35 PM 50.0 °F - 46.4 °F 87% 29.74 in 10.0 mi SSE 5.8 mph - 0.02 in   Scattered Clouds
7:55 PM 50.0 °F - 46.4 °F 87% 29.75 in 10.0 mi SSE 6.9 mph - 0.02 in   Scattered Clouds
8:15 PM 50.0 °F - 46.4 °F 87% 29.74 in 10.0 mi SE 8.1 mph - N/A Rain Light Rain
8:35 PM 50.0 °F - 46.4 °F 87% 29.76 in 10.0 mi SSE 9.2 mph - N/A   Clear
8:55 PM 50.0 °F - 46.4 °F 87% 29.76 in 10.0 mi South 10.4 mph - N/A   Clear
9:15 PM 50.0 °F - 46.4 °F 87% 29.76 in 10.0 mi South 11.5 mph - N/A   Clear
9:35 PM 50.0 °F - 46.4 °F 87% 29.76 in 10.0 mi South 12.7 mph - N/A   Clear
9:55 PM 50.0 °F - 46.4 °F 87% 29.76 in 10.0 mi South 12.7 mph - N/A   Clear
10:15 PM 50.0 °F - 44.6 °F 82% 29.76 in 10.0 mi SSW 15.0 mph - N/A   Clear
10:35 PM 50.0 °F - 44.6 °F 82% 29.76 in 10.0 mi SSW 12.7 mph - N/A   Clear
10:55 PM 50.0 °F - 44.6 °F 82% 29.76 in 10.0 mi SSW 12.7 mph - N/A   Clear
11:15 PM 50.0 °F - 42.8 °F 76% 29.76 in 10.0 mi SSW 11.5 mph - N/A   Clear
11:35 PM 50.0 °F - 41.0 °F 71% 29.75 in 10.0 mi SSW 11.5 mph - N/A   Clear
11:55 PM 50.0 °F - 41.0 °F 71% 29.75 in 10.0 mi SSW 15.0 mph - N/A   Clear